Location: Newark
(40.9833°N, 0.0333°W)
Time: 02:29:01
(UTC+00:00)

Altair - Pass Details

Date: 03 November 2020
Orbit: 1502 x 1682 km, 47.2° (Epoch: 02 December)

Event Time Altitude Azimuth Distance (km) Brightness Sun altitude
Rises 03:19:56 0° 231° (SW) 4,624 - -36.8°
Reaches altitude 10° 03:22:56 10° 230° (SW) 3,648 - -36.3°
Exits shadow 03:31:07 70° 190° (S) 1,601 7.3 -34.8°
Maximum altitude 03:32:03 75° 147° (SSE) 1,567 7.4 -34.6°
Drops below altitude 10° 03:41:27 10° 64° (ENE) 3,747 10.3 -32.8°
Sets 03:44:34 0° 63° (ENE) 4,756 11.1 -32.3°
